This is the latest recevied weather packets stored in our database for station/object NorthRyde. If no packets are shown the sender has not sent any weather packets the latest 10 day(s).
| Time | Temp. | Humidity | Pressure | Rain* | Wind** | Luminosity | Snow |
|---|---|---|---|---|---|---|---|
| 1778120128 | 17.22° C | 33% | 1015 hPa | 0 mm | - | 605 W/m² | - |
| 1778120062 | 17.22° C | 33% | 1015.4 hPa | 0 mm | - | 608 W/m² | - |
| 1778120006 | 17.22° C | 32% | 1015.3 hPa | 0 mm | - | 613 W/m² | - |
| 1778119941 | 17.22° C | 32% | 1015.1 hPa | 0 mm | - | 613 W/m² | - |
| 1778119879 | 17.22° C | 31% | 1015.2 hPa | 0 mm | - | 612 W/m² | - |
| 1778119816 | 17.22° C | 31% | 1015.2 hPa | 0 mm | - | 613 W/m² | - |
| 1778119757 | 17.22° C | 31% | 1015.1 hPa | 0 mm | - | 613 W/m² | - |
| 1778119700 | 17.22° C | 31% | 1015.2 hPa | 0 mm | - | 613 W/m² | - |
| 1778119638 | 17.22° C | 31% | 1015.1 hPa | 0 mm | - | 615 W/m² | - |
| 1778119573 | 17.22° C | 30% | 1015 hPa | 0 mm | - | 615 W/m² | - |
| 1778119513 | 17.22° C | 30% | 1015 hPa | 0 mm | - | 617 W/m² | - |
| 1778119451 | 17.22° C | 31% | 1015.1 hPa | 0 mm | - | 617 W/m² | - |
| 1778119403 | 17.22° C | 31% | 1015 hPa | 0 mm | - | 617 W/m² | - |
| 1778119353 | 17.22° C | 31% | 1015 hPa | 0 mm | - | 617 W/m² | - |
| 1778119270 | 17.22° C | 31% | 1015.1 hPa | 0 mm | - | 617 W/m² | - |
| 1778119211 | 17.22° C | 30% | 1015.1 hPa | 0 mm | - | 617 W/m² | - |
| 1778119152 | 17.22° C | 31% | 1015 hPa | 0 mm | - | 617 W/m² | - |
| 1778119094 | 17.22° C | 31% | 1014.9 hPa | 0 mm | - | 617 W/m² | - |
| 1778119036 | 17.22° C | 31% | 1015.2 hPa | 0 mm | - | 619 W/m² | - |
| 1778118970 | 17.22° C | 31% | 1015 hPa | 0 mm | - | 615 W/m² | - |
| 1778118909 | 17.22° C | 31% | 1015.1 hPa | 0 mm | - | 615 W/m² | - |
| 1778118849 | 17.22° C | 30% | 1015 hPa | 0 mm | - | 615 W/m² | - |
| 1778118792 | 17.22° C | 31% | 1014.9 hPa | 0 mm | - | 617 W/m² | - |
| 1778118739 | 17.22° C | 32% | 1015.1 hPa | 0 mm | - | 612 W/m² | - |
| 1778118669 | 17.22° C | 32% | 1015 hPa | 0 mm | - | 619 W/m² | - |
* Rain latest hour (hover to see other rain measurements)
** Current wind speed in m/s (hover to see current wind gust speed)